Terminal Aerodrome Forecast
Issued by NWS Dodge City, KS

Home | Current Version | Previous Version | Text Only | Print | Product List | Glossary On
Versions: 1 2 3 4 5 6 7 8 9 10 11 12 13 14 15 16 17 18 19 20 21 22 23 24 25 26 27 28 29 30 31 32 33 34 35 36 37 38 39 40 41 42 43 44 45 46 47 48 49 50
802
FTUS43 KDDC 192320
TAFDDC
TAF
KDDC 192320Z 2000/2024 26004KT P6SM OVC022
     FM201200 VRB04KT 3SM BR OVC003
      TEMPO 2012/2015 1/2SM FG
     FM201500 VRB04KT 1SM BR OVC010=

USA.gov is the U.S. government's official web portal to all federal, state and local government web resources and services.